Weather History for Cut Bank, MT

Change the Weather History Date:

Friday, December 20, 2013

  Actual Average Record
Temperature  
Mean Temperature 22 °F 21 °F  
Max Temperature 25 °F 32 °F 54 °F (1941)
Min Temperature 18 °F 11 °F -29 °F (1990)
Degree Days  
Heating Degree Days 43 44  
Month to date heating degree days 1004 846  
Since 1 July heating degree days 3093 3109  
Cooling Degree Days 0 0  
Month to date cooling degree days 0 0  
Year to date cooling degree days 226 162  
Moisture  
Dew Point 13 °F    
Average Humidity 71    
Maximum Humidity 81    
Minimum Humidity 60    
Precipitation  
Precipitation T in 0.01 in 0.07 in (1953)
Month to date precipitation 0.03 0.14  
Year to date precipitation 14.50 10.82  
Snow  
Snow 0.00 in - - ()
Snow Depth 2.00 in    
Sea Level Pressure  
Sea Level Pressure 29.69 in    
Wind  
Wind Speed 20 mph (West)    
Max Wind Speed 32 mph    
Max Gust Speed 39 mph    
Visibility 10 miles    
Events Snow    
T = Trace of Precipitation, MM = Missing Value Source: NWS Daily Summary

Daily Weather History Graph

Daily Weather History Graph

Search for Another Location

Airport:

Trip Planner

Search our weather history database for the weather conditions in past years. The results will help you decide how hot, cold, wet, or windy it might be!

Date:

Astronomy

Dec. 20, 2013 Rise Set
Actual Time 8:18 AM MST 4:35 PM MST
Civil Twilight 7:41 AM MST 5:12 PM MST
Nautical Twilight 7:01 AM MST 5:53 PM MST
Astronomical Twilight 6:23 AM MST 6:31 PM MST
Moon 8:14 PM MST (12/20) 10:01 AM MST (12/20)
Length of Visible Light 9h 31m
Length of Day
8h 17m
Waning Gibbous, 90% of the Moon is Illuminated
Dec 20
Waning Gibbous
Dec 25
Last Quarter
Jan 1
New
Jan 7
First Quarter
Jan 15
Full

Hourly Weather History & Observations

Time (MST) Temp. Windchill Dew Point Humidity Pressure Visibility Wind Dir Wind Speed Gust Speed Precip Events Conditions
12:56 AM 19.0 °F 1.0 °F 9.0 °F 65% 29.89 in 10.0 mi WSW 26.5 mph - N/A   Clear
1:56 AM 18.0 °F 1.3 °F 9.0 °F 68% 29.88 in 10.0 mi West 20.7 mph - N/A   Clear
2:56 AM 19.0 °F 2.4 °F 10.0 °F 68% 29.86 in 10.0 mi West 21.9 mph - N/A   Clear
3:56 AM 19.0 °F 1.0 °F 10.0 °F 68% 29.84 in 10.0 mi West 26.5 mph 31.1 mph N/A   Clear
4:56 AM 21.0 °F 5.0 °F 10.9 °F 65% 29.83 in 10.0 mi West 21.9 mph - N/A   Clear
5:56 AM 21.0 °F 2.7 °F 10.9 °F 65% 29.81 in 10.0 mi West 29.9 mph 35.7 mph N/A   Clear
6:56 AM 21.0 °F 3.3 °F 10.9 °F 65% 29.81 in 10.0 mi West 27.6 mph 36.8 mph N/A   Clear
7:56 AM 21.0 °F 4.6 °F 12.0 °F 68% 29.80 in 10.0 mi West 23.0 mph 29.9 mph N/A   Clear
8:56 AM 21.0 °F 3.9 °F 10.0 °F 63% 29.81 in 10.0 mi West 25.3 mph 34.5 mph N/A   Clear
9:56 AM 23.0 °F 6.3 °F 12.0 °F 63% 29.77 in 10.0 mi West 26.5 mph 33.4 mph N/A   Overcast
10:56 AM 24.1 °F 7.7 °F 12.9 °F 62% 29.74 in 10.0 mi WSW 26.5 mph - N/A   Overcast
11:56 AM 25.0 °F 9.9 °F 12.9 °F 60% 29.70 in 10.0 mi West 23.0 mph 33.4 mph N/A   Overcast
12:56 PM 24.1 °F 7.7 °F 12.9 °F 62% 29.67 in 10.0 mi West 26.5 mph 35.7 mph N/A   Overcast
1:56 PM 24.1 °F 8.0 °F 12.9 °F 62% 29.64 in 10.0 mi West 25.3 mph 35.7 mph N/A   Mostly Cloudy
2:56 PM 24.1 °F 8.7 °F 12.0 °F 60% 29.61 in 10.0 mi WSW 23.0 mph 27.6 mph N/A   Overcast
3:56 PM 25.0 °F 10.2 °F 12.0 °F 58% 29.59 in 10.0 mi West 21.9 mph - N/A   Overcast
4:56 PM 25.0 °F 13.1 °F 12.0 °F 58% 29.58 in 10.0 mi WSW 13.8 mph - N/A   Overcast
5:56 PM 24.1 °F 11.0 °F 12.0 °F 60% 29.57 in 10.0 mi WSW 16.1 mph - N/A   Overcast
6:56 PM 24.1 °F 12.0 °F 12.9 °F 62% 29.55 in 10.0 mi WSW 13.8 mph - N/A   Overcast
7:56 PM 24.1 °F 14.4 °F 12.9 °F 62% 29.54 in 10.0 mi WSW 9.2 mph - N/A   Overcast
8:56 PM 24.1 °F 13.1 °F 14.0 °F 65% 29.54 in 10.0 mi West 11.5 mph - N/A   Overcast
9:56 PM 24.1 °F 13.1 °F 16.0 °F 71% 29.57 in 10.0 mi WNW 11.5 mph - N/A   Overcast
10:56 PM 23.0 °F 12.4 °F 17.1 °F 78% 29.59 in 10.0 mi NW 10.4 mph - 0.00 in   Overcast
11:38 PM 21.9 °F 13.4 °F 19.0 °F 89% 29.49 in 5.0 mi NNW 6.9 mph - 0.00 in Snow Light Snow
11:56 PM 21.9 °F 13.4 °F 19.0 °F 89% 29.61 in 6.0 mi NW 6.9 mph - 0.00 in Snow Light Snow